Regional Weather Roundup
Issued by NWS Cleveland, OH

Home | Current Version | Previous Version | Graphics & Text | Print | Product List | Glossary On
Versions: 1 2 3 4 5 6 7 8 9 10 11 12 13 14 15 16 17 18 19 20 21 22 23 24 25 26 27 28 29 30 31 32 33 34 35 36 37 38 39 40 41 42 43 44 45 46 47 48 49 50
000
ASUS41 KCLE 161002
RWRCLE
OHIO REGIONAL WEATHER ROUNDUP
NATIONAL WEATHER SERVICE CLEVELAND, OH
500 AM EST MON JAN 16 2017

NOTE: "FAIR" INDICATES FEW OR NO CLOUDS BELOW 12,000 FEET WITH NO
SIGNIFICANT WEATHER AND/OR OBSTRUCTIONS TO VISIBILITY.

OHZ001>008-015>018-024>027-034-035-043-044-161100-
   NORTHWEST OHIO

CITY           SKY/WX    TMP DP  RH WIND       PRES   REMARKS
DEFIANCE       CLOUDY    29  24  82 E3        30.32F HAZE
FINDLAY        CLOUDY    31  25  78 E3        30.30F HAZE
TOLEDO EXPRESS CLOUDY    23  23 100 CALM      30.32F FOG
TOLEDO EXEC    CLOUDY    25  24  96 E5        30.34F FOG     WCI  19
LIMA           CLOUDY    32  31  96 SE5       30.29F FOG     WCI  27
$$

OHZ009>014-019>023-028>033-038-089-161100-
   NORTHEAST OHIO

CITY           SKY/WX    TMP DP  RH WIND       PRES   REMARKS
CLE-HOPKINS    MOCLDY    24  18  77 SE3       30.36F
CLE-LAKEFRONT  CLOUDY    27  21  78 SE7       30.34F WCI  19
CUY CO. ARPT   NOT AVBL
LORAIN-ELYRIA  PTCLDY    22  19  89 S5        30.35F FOG     WCI  16
ASHTABULA      CLEAR     20  17  88 S5        30.36S WCI  13
AKRON-CANTON   CLOUDY    25  19  78 E3        30.33S
WOOSTER        CLOUDY    26  22  84 CALM      30.34R
MANSFIELD      CLOUDY    29  26  89 SE5       30.31S WCI  24
YOUNGSTOWN     CLOUDY    19  15  84 E7        30.33F WCI  10
$$

OHZ042-051>053-060>062-070>072-077>081-161100-
  SOUTHWEST OHIO

CITY           SKY/WX    TMP DP  RH WIND       PRES   REMARKS
CINC-COVINGTON FOG       38  38 100 E7        30.26F VSB 1/2
CINC-LUNKEN    CLOUDY    39  38  96 NE3       30.31S FOG
HAMILTON       CLOUDY    38  37  97 E5        30.30F FOG
DAYTON         CLOUDY    34  32  92 E7        30.29F FOG     WCI  28
WRIGHT-PAT AFB CLOUDY    35  35  99 E6        30.29F
DAYTON GENERAL CLOUDY    36  34  92 E7        30.28F FOG
WILMINGTON     CLOUDY    35  35 100 E7        30.29S FOG     WCI  29
$$

OHZ036-037-039>041-045>050-054>059-063>069-073>076-082>088-161100-
  CENTRAL AND SOUTHEAST OHIO

CITY           SKY/WX    TMP DP  RH WIND       PRES   REMARKS
COLUMBUS       CLOUDY    35  30  82 E3        30.31F
OSU AIRPORT    CLOUDY    32  31  96 E3        30.31F FOG
BOLTON FIELD   NOT AVBL
RICKENBACK AFB   N/A     33  32  96 E5        30.32S WCI  28
NEWARK         CLOUDY    32  28  85 NE3       30.32F
MARION         CLOUDY    31  27  85 SE7       30.31F FOG     WCI  24
LANCASTER      CLOUDY    35  32  88 CALM      30.33S FOG
ZANESVILLE     CLOUDY    31  28  89 CALM      30.32F FOG
NEW PHILLY     NOT AVBL
$$



USA.gov is the U.S. government's official web portal to all federal, state and local government web resources and services.